Location: Millers Ferry
(32.0990°N, 87.3680°W)
Time: 21:58:02
(UTC-05:00)

CSL-04 Rocket - Visible Passes

Search period start: 29 July 2014 00:00
Search period end: 08 August 2014 00:00
Orbit: 807 x 860 km, 98.9° (Epoch: 28 July)

Date Brightness Start Highest point End Pass type
(mag) Time Alt. Az. Time Alt. Az. Time Alt. Az.
29 Jul 4.6 04:40:57 10° NNE 04:46:07 45° E 04:51:10 10° S visible
30 Jul 5.3 04:24:35 10° NE 04:29:18 31° E 04:33:56 10° SSE visible
31 Jul 5.9 04:08:29 10° NE 04:12:27 21° E 04:16:21 10° SE visible
01 Aug 6.2 03:52:56 10° ENE 03:55:33 14° E 03:58:09 10° ESE visible
01 Aug 3.8 05:30:56 10° N 05:36:11 56° WNW 05:41:20 10° SSW visible
02 Aug 3.6 05:14:06 10° N 05:19:29 83° WNW 05:24:46 10° SSW visible
03 Aug 4.0 04:57:25 10° NNE 05:02:45 67° ESE 05:07:59 10° S visible
04 Aug 4.7 04:40:52 10° NNE 04:45:58 45° E 04:50:59 10° S visible
05 Aug 5.3 04:24:30 10° NE 04:29:09 30° E 04:33:44 10° SSE visible
06 Aug 5.9 04:08:25 10° NE 04:12:18 20° E 04:16:08 10° SE visible
07 Aug 6.2 03:52:54 10° ENE 03:55:24 13° E 03:57:54 10° ESE visible
07 Aug 3.8 05:30:49 10° N 05:36:02 57° WNW 05:41:11 10° SSW visible
